Gonzales, LA

9:39 AM CST on December 18, 2017 (GMT -0600)
Gonzales

Weather History for KL38 - October, 2012

Change the Weather History Date:

Thursday, October 25, 2012

  Actual Average (KBTR) Record (KBTR)
Temperature  
Mean Temperature 72 °F -  
Max Temperature 84 °F 76 °F 89 °F (1936)
Min Temperature 61 °F 54 °F 36 °F (1938)
Cooling Degree Days 8    
Growing Degree Days 22 (Base 50)    
Moisture  
Dew Point 65 °F    
Average Humidity 81    
Maximum Humidity 100    
Minimum Humidity 47    
Precipitation  
Precipitation 0.00 in - - ()
Sea Level Pressure  
Sea Level Pressure 29.95 in    
Wind  
Wind Speed 1 mph ()    
Max Wind Speed 8 mph    
Max Gust Speed -    
Visibility 7.3 miles    
Events Fog    
Averages and records for this station are not official NWS values.
T = Trace of Precipitation, MM = Missing Value Source: Averaged Metar Reports

Daily Weather History Graph

Daily Weather History Graph

Search for Another Location

Airport or City:

Trip Planner

Search our weather history database for the weather conditions in past years. The results will help you decide how hot, cold, wet, or windy it might be!

Date:

Astronomy

Oct. 25, 2012 Rise Set
Actual Time 7:12 AM CDT 6:22 PM CDT
Civil Twilight 6:48 AM CDT 6:46 PM CDT
Nautical Twilight 6:20 AM CDT 7:14 PM CDT
Astronomical Twilight 5:52 AM CDT 7:42 PM CDT
Moon 3:55 PM CDT (10/25) 3:25 AM CDT (10/25)
Length of Visible Light 11h 58m
Length of Day
11h 09m
Waxing Gibbous, 84% of the Moon is Illuminated
Oct 25
Waxing Gibbous
Oct 29
Full
Nov 6
Last Quarter
Nov 13
New
Nov 20
First Quarter

Hourly Weather History & Observations

Time (CDT) Temp. Heat Index Dew Point Humidity Pressure Visibility Wind Dir Wind Speed Gust Speed Precip Events Conditions
12:15 AM 68.5 °F - 67.5 °F 96% 29.98 in 10.0 mi Calm Calm - N/A   Clear
12:35 AM 69.1 °F - 68.2 °F 97% 29.98 in 10.0 mi Calm Calm - N/A   Clear
12:55 AM 66.6 °F - 65.7 °F 97% 29.98 in 5.0 mi Calm Calm - N/A   Clear
1:35 AM 65.5 °F - 64.9 °F 98% 29.97 in 5.0 mi Calm Calm - N/A   Scattered Clouds
1:55 AM 65.5 °F - 65.5 °F 100% 29.97 in 0.2 mi Calm Calm - N/A Fog Fog
2:15 AM 64.8 °F - 64.6 °F 99% 29.97 in 0.2 mi Calm Calm - N/A Fog Fog
2:35 AM 64.6 °F - 64.6 °F 100% 29.96 in 0.5 mi Calm Calm - N/A Fog Fog
2:55 AM 63.7 °F - 63.7 °F 100% 29.96 in 0.2 mi Calm Calm - N/A Fog Fog
3:15 AM 63.1 °F - 63.1 °F 100% 29.95 in 0.5 mi Calm Calm - N/A Fog Fog
3:35 AM 63.7 °F - 63.7 °F 100% 29.95 in 0.2 mi Calm Calm - N/A Fog Fog
3:55 AM 63.5 °F - 63.5 °F 100% 29.95 in 0.2 mi Calm Calm - N/A Fog Fog
4:15 AM 63.1 °F - 63.1 °F 100% 29.94 in 0.2 mi Calm Calm - N/A Fog Fog
4:35 AM 62.6 °F - 62.6 °F 100% 29.94 in 0.8 mi Calm Calm - N/A   Overcast
4:55 AM 62.4 °F - 62.4 °F 100% 29.94 in 2.5 mi Calm Calm - N/A   Overcast
5:15 AM 62.2 °F - 62.2 °F 100% 29.93 in 0.5 mi Calm Calm - N/A Fog Fog
5:35 AM 62.2 °F - 62.2 °F 100% 29.94 in 0.5 mi Calm Calm - N/A Fog Fog
5:55 AM 62.2 °F - 62.1 °F 99% 29.93 in 2.5 mi Calm Calm - N/A   Mostly Cloudy
6:15 AM 61.7 °F - 61.7 °F 100% 29.94 in 0.5 mi Calm Calm - N/A Fog Fog
7:35 AM 61.9 °F - 61.9 °F 100% 29.95 in 5.0 mi Calm Calm - N/A   Mostly Cloudy
7:55 AM 63.1 °F - 63.1 °F 100% 29.96 in 5.0 mi Calm Calm - N/A   Scattered Clouds
8:15 AM 63.3 °F - 63.3 °F 100% 29.97 in 7.0 mi Calm Calm - N/A   Clear
8:35 AM 64.6 °F - 64.4 °F 99% 29.98 in 5.0 mi Calm Calm - N/A   Clear
8:55 AM 67.1 °F - 66.4 °F 98% 29.99 in 7.0 mi Calm Calm - N/A   Clear
9:15 AM 69.1 °F - 67.3 °F 94% 30.00 in 10.0 mi Calm Calm - N/A   Clear
9:35 AM 70.9 °F - 68.0 °F 91% 30.00 in 10.0 mi Calm Calm - N/A   Clear
9:55 AM 74.1 °F - 67.5 °F 80% 30.00 in 10.0 mi ENE 3.5 mph - N/A   Clear
10:35 AM 77.4 °F - 67.6 °F 72% 30.00 in 10.0 mi ENE 3.5 mph - N/A   Clear
10:55 AM 78.3 °F - 66.6 °F 67% 30.00 in 10.0 mi SE 5.8 mph - N/A   Scattered Clouds
11:15 AM 78.8 °F - 66.4 °F 66% 30.00 in 10.0 mi ESE 5.8 mph - N/A   Scattered Clouds
11:35 AM 79.5 °F - 66.9 °F 65% 30.00 in 10.0 mi Calm Calm - N/A   Scattered Clouds
11:55 AM 80.6 °F 82.9 °F 66.7 °F 63% 29.99 in 10.0 mi SSE 4.6 mph - N/A   Scattered Clouds
12:15 PM 81.0 °F 83.2 °F 66.2 °F 61% 29.98 in 10.0 mi South 8.1 mph - N/A   Scattered Clouds
12:35 PM 81.7 °F 83.3 °F 64.6 °F 56% 29.98 in 10.0 mi SSE 5.8 mph - N/A   Clear
12:55 PM 81.7 °F 83.3 °F 64.6 °F 56% 29.96 in 10.0 mi SE 3.5 mph - N/A   Clear
1:15 PM 82.2 °F 83.8 °F 64.4 °F 55% 29.95 in 10.0 mi NW 3.5 mph - N/A   Scattered Clouds
1:35 PM 81.5 °F 82.8 °F 63.5 °F 54% 29.95 in 10.0 mi Calm Calm - N/A   Mostly Cloudy
1:55 PM 82.6 °F 83.4 °F 62.4 °F 50% 29.94 in 10.0 mi Calm Calm - N/A   Scattered Clouds
2:15 PM 84.2 °F 85.2 °F 63.1 °F 49% 29.93 in 10.0 mi ESE 4.6 mph - N/A   Scattered Clouds
2:35 PM 83.1 °F 83.7 °F 61.5 °F 48% 29.92 in 10.0 mi Calm Calm - N/A   Scattered Clouds
2:55 PM 83.7 °F 84.5 °F 62.4 °F 49% 29.92 in 10.0 mi Calm Calm - N/A   Clear
3:15 PM 83.8 °F 84.5 °F 62.4 °F 48% 29.91 in 10.0 mi Calm Calm - N/A   Clear
3:35 PM 83.7 °F 84.3 °F 61.9 °F 48% 29.91 in 10.0 mi Calm Calm - N/A   Scattered Clouds
3:55 PM 84.0 °F 84.5 °F 61.9 °F 47% 29.91 in 10.0 mi Calm Calm - N/A   Mostly Cloudy
4:15 PM 84.7 °F 85.4 °F 62.2 °F 47% 29.91 in 10.0 mi North 5.8 mph - N/A   Overcast
4:35 PM 83.7 °F 84.3 °F 61.9 °F 48% 29.91 in 10.0 mi NNE 3.5 mph - N/A   Mostly Cloudy
4:55 PM 83.8 °F 84.3 °F 61.3 °F 47% 29.91 in 10.0 mi Calm Calm - N/A   Clear
5:35 PM 82.4 °F 84.1 °F 64.6 °F 55% 29.91 in 10.0 mi ENE 5.8 mph - N/A   Clear
5:55 PM 81.1 °F 82.9 °F 65.3 °F 58% 29.92 in 10.0 mi ENE 3.5 mph - N/A   Clear
6:15 PM 79.5 °F - 65.7 °F 62% 29.92 in 10.0 mi East 3.5 mph - N/A   Clear
6:35 PM 77.9 °F - 66.9 °F 69% 29.92 in 10.0 mi Calm Calm - N/A   Clear
6:55 PM 75.4 °F - 66.9 °F 75% 29.93 in 10.0 mi Calm Calm - N/A   Clear
7:15 PM 72.0 °F - 68.0 °F 87% 29.93 in 10.0 mi Calm Calm - N/A   Clear
7:35 PM 71.2 °F - 67.5 °F 88% 29.93 in 10.0 mi Calm Calm - N/A   Clear
7:55 PM 71.1 °F - 67.5 °F 88% 29.94 in 10.0 mi Calm Calm - N/A   Clear
8:35 PM 69.4 °F - 66.7 °F 91% 29.94 in 10.0 mi Calm Calm - N/A   Clear
8:55 PM 69.3 °F - 66.7 °F 92% 29.95 in 10.0 mi Calm Calm - N/A   Clear
9:15 PM 68.0 °F - 66.6 °F 95% 29.95 in 10.0 mi Calm Calm - N/A   Clear
9:35 PM 67.8 °F - 66.0 °F 94% 29.95 in 10.0 mi Calm Calm - N/A   Clear
9:55 PM 68.0 °F - 66.2 °F 94% 29.95 in 10.0 mi Calm Calm - N/A   Clear
10:15 PM 66.6 °F - 65.7 °F 97% 29.96 in 7.0 mi Calm Calm - N/A   Clear
10:55 PM 66.0 °F - 65.3 °F 98% 29.96 in 7.0 mi Calm Calm - N/A   Clear
11:15 PM 65.7 °F - 65.3 °F 99% 29.96 in 7.0 mi Calm Calm - N/A   Clear
11:35 PM 66.0 °F - 65.5 °F 98% 29.96 in 10.0 mi Calm Calm - N/A   Clear
11:55 PM 65.5 °F - 64.8 °F 98% 29.95 in 10.0 mi Calm Calm - N/A   Clear